Time,TemperatureF,DewpointF,PressureIn,WindDirection,WindDirectionDegrees,WindSpeedMPH,WindSpeedGustMPH,Humidity,HourlyPrecipIn,Conditions,Clouds,dailyrainin,SoftwareType,DateUTC
2013-01-05 00:00:00,69.8,63.7,29.86,North,0,4.5,4.5,81,0.00,,---,0.00,VWS V13.01,2013-01-05 05:00:00,
2013-01-05 00:10:00,69.6,63.5,29.86,North,0,3.4,3.6,81,0.00,,---,0.00,VWS V13.01,2013-01-05 05:10:00,
2013-01-05 00:15:00,69.6,63.5,29.86,North,0,0.0,3.4,81,0.00,,---,0.00,VWS V13.01,2013-01-05 05:15:00,
2013-01-05 00:20:00,69.6,63.5,29.85,NNE,22,0.0,0.0,81,0.00,,---,0.00,VWS V13.01,2013-01-05 05:20:00,
2013-01-05 00:25:00,69.6,63.5,29.85,NNW,338,2.5,2.5,81,0.00,,---,0.00,VWS V13.01,2013-01-05 05:25:00,
2013-01-05 00:35:00,69.4,63.4,29.85,NNW,338,1.3,1.3,81,0.00,,---,0.00,VWS V13.01,2013-01-05 05:35:00,
2013-01-05 00:45:00,69.3,63.2,29.85,North,0,0.0,0.7,81,0.00,,---,0.00,VWS V13.01,2013-01-05 05:45:00,
2013-01-05 00:55:00,69.3,63.2,29.85,North,0,0.0,0.0,81,0.00,,---,0.00,VWS V13.01,2013-01-05 05:55:00,
2013-01-05 01:00:00,69.1,63.0,29.85,North,0,2.5,2.5,81,0.00,,---,0.00,VWS V13.01,2013-01-05 06:00:00,
2013-01-05 01:10:00,69.1,63.0,29.84,NNW,338,0.0,0.0,81,0.00,,---,0.00,VWS V13.01,2013-01-05 06:10:00,
2013-01-05 01:15:00,68.9,62.8,29.84,NNW,338,0.9,0.9,81,0.00,,---,0.00,VWS V13.01,2013-01-05 06:15:00,
2013-01-05 01:25:00,68.9,62.8,29.84,NNW,338,2.7,2.7,81,0.00,,---,0.00,VWS V13.01,2013-01-05 06:25:00,
2013-01-05 01:35:00,68.7,62.7,29.84,North,0,0.0,0.0,81,0.00,,---,0.00,VWS V13.01,2013-01-05 06:35:00,
2013-01-05 01:45:00,68.7,62.7,29.84,NNE,22,0.0,11.0,81,0.00,,---,0.00,VWS V13.01,2013-01-05 06:45:00,
2013-01-05 01:50:00,68.7,62.7,29.84,North,0,0.0,0.0,81,0.00,,---,0.00,VWS V13.01,2013-01-05 06:50:00,
2013-01-05 02:00:00,68.7,62.7,29.84,North,0,0.0,0.0,81,0.00,,---,0.00,VWS V13.01,2013-01-05 07:00:00,
2013-01-05 02:10:00,68.5,62.5,29.84,NNE,22,0.0,2.5,81,0.00,,---,0.00,VWS V13.01,2013-01-05 07:10:00,
2013-01-05 02:20:00,68.2,62.5,29.84,NNE,22,2.0,2.0,82,0.00,,---,0.00,VWS V13.01,2013-01-05 07:20:00,
2013-01-05 02:30:00,67.8,62.1,29.84,NNE,22,0.0,6.9,82,0.00,,---,0.00,VWS V13.01,2013-01-05 07:30:00,
2013-01-05 02:35:00,67.8,62.1,29.84,NNE,22,3.8,3.8,82,0.00,,---,0.00,VWS V13.01,2013-01-05 07:35:00,
2013-01-05 02:40:00,67.8,62.5,29.84,NNE,22,0.7,5.8,83,0.00,,---,0.00,VWS V13.01,2013-01-05 07:40:00,
2013-01-05 02:50:00,67.8,62.5,29.84,NE,45,0.0,2.9,83,0.00,,---,0.00,VWS V13.01,2013-01-05 07:50:00,
2013-01-05 02:55:00,67.8,62.5,29.84,North,0,1.8,1.8,83,0.00,,---,0.00,VWS V13.01,2013-01-05 07:55:00,
2013-01-05 03:00:00,67.8,62.5,29.84,NNW,338,0.0,1.8,83,0.00,,---,0.00,VWS V13.01,2013-01-05 08:00:00,
2013-01-05 03:10:00,67.8,62.1,29.84,North,0,0.0,0.0,82,0.00,,---,0.00,VWS V13.01,2013-01-05 08:10:00,
2013-01-05 03:15:00,67.8,62.1,29.84,NNW,338,1.3,1.3,82,0.00,,---,0.00,VWS V13.01,2013-01-05 08:15:00,
2013-01-05 03:25:00,67.8,62.1,29.84,NNW,338,0.0,4.7,82,0.00,,---,0.00,VWS V13.01,2013-01-05 08:25:00,
2013-01-05 03:35:00,67.8,62.1,29.84,NNW,338,0.0,0.0,82,0.00,,---,0.00,VWS V13.01,2013-01-05 08:35:00,
2013-01-05 03:45:00,67.6,62.0,29.84,NNW,338,2.2,4.0,82,0.00,,---,0.00,VWS V13.01,2013-01-05 08:45:00,
2013-01-05 03:55:00,67.6,62.0,29.84,North,0,2.0,2.0,82,0.00,,---,0.00,VWS V13.01,2013-01-05 08:55:00,
2013-01-05 04:00:00,67.6,62.3,29.84,NNE,22,2.5,2.5,83,0.00,,---,0.00,VWS V13.01,2013-01-05 09:00:00,
2013-01-05 04:10:00,67.6,62.3,29.84,NNW,338,1.6,1.6,83,0.00,,---,0.00,VWS V13.01,2013-01-05 09:10:00,
2013-01-05 04:20:00,67.6,62.3,29.84,North,0,6.3,6.3,83,0.00,,---,0.00,VWS V13.01,2013-01-05 09:20:00,
2013-01-05 04:30:00,67.6,62.3,29.84,North,0,6.7,10.3,83,0.00,,---,0.00,VWS V13.01,2013-01-05 09:30:00,
2013-01-05 04:35:00,67.6,62.3,29.84,North,0,6.0,6.7,83,0.00,,---,0.00,VWS V13.01,2013-01-05 09:35:00,
2013-01-05 04:45:00,67.6,62.3,29.84,North,0,1.3,4.5,83,0.00,,---,0.00,VWS V13.01,2013-01-05 09:45:00,
2013-01-05 04:55:00,67.6,62.3,29.84,NNW,338,6.5,13.4,83,0.00,,---,0.00,VWS V13.01,2013-01-05 09:55:00,
2013-01-05 05:00:00,67.6,62.3,29.84,NNE,22,4.0,6.5,83,0.00,,---,0.00,VWS V13.01,2013-01-05 10:00:00,
2013-01-05 05:10:00,67.6,62.3,29.84,NNW,338,4.0,4.0,83,0.00,,---,0.00,VWS V13.01,2013-01-05 10:10:00,
2013-01-05 05:20:00,67.6,62.3,29.84,NNW,338,2.7,2.7,83,0.00,,---,0.00,VWS V13.01,2013-01-05 10:20:00,
2013-01-05 05:30:00,67.6,62.3,29.84,North,0,3.8,7.4,83,0.00,,---,0.00,VWS V13.01,2013-01-05 10:30:00,
2013-01-05 05:35:00,67.6,62.3,29.84,NNE,22,5.4,5.4,83,0.00,,---,0.00,VWS V13.01,2013-01-05 10:35:00,
2013-01-05 05:45:00,67.6,62.3,29.84,NW,315,0.0,7.8,83,0.00,,---,0.00,VWS V13.01,2013-01-05 10:45:00,
2013-01-05 05:55:00,67.6,62.3,29.84,North,0,1.8,4.3,83,0.00,,---,0.00,VWS V13.01,2013-01-05 10:55:00,
2013-01-05 06:05:00,67.8,62.5,29.85,North,0,7.8,7.8,83,0.00,,---,0.00,VWS V13.01,2013-01-05 11:05:00,
2013-01-05 06:10:00,67.8,62.5,29.85,North,0,8.5,8.5,83,0.00,,---,0.00,VWS V13.01,2013-01-05 11:10:00,
2013-01-05 06:20:00,67.8,62.5,29.85,North,0,3.4,8.5,83,0.00,,---,0.00,VWS V13.01,2013-01-05 11:20:00,
2013-01-05 06:30:00,68.0,62.7,29.86,NNW,338,0.7,2.0,83,0.00,,---,0.00,VWS V13.01,2013-01-05 11:30:00,
2013-01-05 06:40:00,68.2,62.5,29.86,NNW,338,3.8,4.3,82,0.00,,---,0.00,VWS V13.01,2013-01-05 11:40:00,
2013-01-05 06:50:00,68.2,62.5,29.86,NNE,22,4.9,4.9,82,0.00,,---,0.00,VWS V13.01,2013-01-05 11:50:00,
2013-01-05 07:00:00,68.2,62.5,29.86,North,0,4.3,4.9,82,0.00,,---,0.00,VWS V13.01,2013-01-05 12:00:00,
2013-01-05 07:10:00,68.2,62.5,29.87,NNE,22,10.1,10.1,82,0.00,,---,0.00,VWS V13.01,2013-01-05 12:10:00,
2013-01-05 07:20:00,68.5,62.8,29.87,NNE,22,1.6,1.6,82,0.00,,---,0.00,VWS V13.01,2013-01-05 12:20:00,
2013-01-05 07:30:00,68.4,62.7,29.88,NNE,22,3.4,3.4,82,0.00,,---,0.00,VWS V13.01,2013-01-05 12:30:00,
2013-01-05 07:40:00,68.4,63.0,29.88,North,0,0.9,2.2,83,0.00,,---,0.00,VWS V13.01,2013-01-05 12:40:00,
2013-01-05 07:45:00,68.5,63.2,29.88,NE,45,0.0,0.9,83,0.00,,---,0.00,VWS V13.01,2013-01-05 12:45:00,
2013-01-05 07:55:00,68.5,63.2,29.88,NNE,22,4.5,4.5,83,0.00,,---,0.00,VWS V13.01,2013-01-05 12:55:00,
2013-01-05 08:05:00,68.4,63.0,29.89,NNW,338,0.4,2.5,83,0.02,,---,0.02,VWS V13.01,2013-01-05 13:05:00,
2013-01-05 08:15:00,68.5,63.2,29.89,NNW,338,1.1,5.4,83,0.02,,---,0.02,VWS V13.01,2013-01-05 13:15:00,
2013-01-05 08:25:00,68.7,63.3,29.89,NNW,338,5.4,5.4,83,0.02,,---,0.02,VWS V13.01,2013-01-05 13:25:00,
2013-01-05 08:35:00,68.5,63.2,29.89,NNE,22,0.0,0.0,83,0.02,,---,0.02,VWS V13.01,2013-01-05 13:35:00,
2013-01-05 08:45:00,68.7,63.7,29.89,NW,315,1.1,1.1,84,0.04,,---,0.04,VWS V13.01,2013-01-05 13:45:00,
2013-01-05 08:55:00,68.9,63.9,29.89,NNE,22,0.0,1.1,84,0.04,,---,0.04,VWS V13.01,2013-01-05 13:55:00,
2013-01-05 09:05:00,69.1,63.7,29.90,NNW,338,0.0,11.9,83,0.02,,---,0.04,VWS V13.01,2013-01-05 14:05:00,
2013-01-05 09:10:00,69.1,63.7,29.90,NW,315,0.0,0.0,83,0.02,,---,0.04,VWS V13.01,2013-01-05 14:10:00,
2013-01-05 09:20:00,69.1,63.7,29.90,NW,315,1.8,3.6,83,0.02,,---,0.04,VWS V13.01,2013-01-05 14:20:00,
2013-01-05 09:25:00,69.4,64.1,29.90,NW,315,1.3,1.8,83,0.02,,---,0.04,VWS V13.01,2013-01-05 14:25:00,
2013-01-05 09:35:00,69.6,64.2,29.90,NNW,338,0.0,1.3,83,0.02,,---,0.04,VWS V13.01,2013-01-05 14:35:00,
2013-01-05 09:45:00,70.0,64.6,29.90,North,0,0.0,19.2,83,0.00,,---,0.04,VWS V13.01,2013-01-05 14:45:00,
2013-01-05 09:55:00,70.3,64.9,29.91,WNW,292,13.6,13.6,83,0.00,,---,0.04,VWS V13.01,2013-01-05 14:55:00,
2013-01-05 10:05:00,70.3,64.9,29.90,NNW,338,4.5,6.5,83,0.00,,---,0.04,VWS V13.01,2013-01-05 15:05:00,
2013-01-05 10:15:00,70.5,65.1,29.90,North,0,13.9,17.2,83,0.00,,---,0.04,VWS V13.01,2013-01-05 15:15:00,
2013-01-05 10:20:00,70.5,64.8,29.90,NNW,338,0.0,13.9,82,0.00,,---,0.04,VWS V13.01,2013-01-05 15:20:00,
2013-01-05 10:30:00,70.7,64.9,29.90,North,0,1.8,4.5,82,0.00,,---,0.04,VWS V13.01,2013-01-05 15:30:00,
2013-01-05 10:35:00,70.7,64.9,29.90,North,0,13.6,17.2,82,0.00,,---,0.04,VWS V13.01,2013-01-05 15:35:00,
2013-01-05 10:45:00,70.9,65.5,29.90,North,0,12.8,12.8,83,0.00,,---,0.04,VWS V13.01,2013-01-05 15:45:00,
2013-01-05 10:55:00,70.5,65.1,29.90,North,0,12.3,12.3,83,0.02,,---,0.06,VWS V13.01,2013-01-05 15:55:00,
2013-01-05 11:05:00,70.7,65.3,29.90,NNW,338,10.5,12.3,83,0.02,,---,0.06,VWS V13.01,2013-01-05 16:05:00,
2013-01-05 11:15:00,70.9,65.5,29.89,NNW,338,8.5,11.0,83,0.04,,---,0.08,VWS V13.01,2013-01-05 16:15:00,
2013-01-05 11:25:00,71.1,65.6,29.88,NW,315,0.0,15.4,83,0.08,,---,0.12,VWS V13.01,2013-01-05 16:25:00,
2013-01-05 11:35:00,71.2,65.8,29.88,North,0,2.2,2.2,83,0.08,,---,0.12,VWS V13.01,2013-01-05 16:35:00,
2013-01-05 11:40:00,71.4,66.3,29.89,North,0,2.5,5.1,84,0.08,,---,0.12,VWS V13.01,2013-01-05 16:40:00,
2013-01-05 11:50:00,71.8,66.3,29.88,North,0,2.0,2.0,83,0.06,,---,0.12,VWS V13.01,2013-01-05 16:50:00,
2013-01-05 12:00:00,72.1,67.0,29.88,North,0,11.4,11.4,84,0.06,,---,0.12,VWS V13.01,2013-01-05 17:00:00,
2013-01-05 12:05:00,72.3,67.2,29.87,NW,315,2.7,11.4,84,0.06,,---,0.12,VWS V13.01,2013-01-05 17:05:00,
2013-01-05 12:15:00,72.3,66.9,29.86,NE,45,4.3,4.9,83,0.04,,---,0.12,VWS V13.01,2013-01-05 17:15:00,
2013-01-05 12:25:00,72.5,67.1,29.86,ENE,68,1.6,6.5,83,0.00,,---,0.12,VWS V13.01,2013-01-05 17:25:00,
2013-01-05 12:35:00,72.5,67.1,29.86,NNE,22,0.7,0.7,83,0.00,,---,0.12,VWS V13.01,2013-01-05 17:35:00,
2013-01-05 12:40:00,72.5,66.7,29.85,North,0,15.9,15.9,82,0.00,,---,0.12,VWS V13.01,2013-01-05 17:40:00,
2013-01-05 12:50:00,72.5,67.1,29.85,NE,45,1.1,20.1,83,0.00,,---,0.12,VWS V13.01,2013-01-05 17:50:00,
2013-01-05 12:55:00,72.7,66.9,29.85,ENE,68,1.8,1.8,82,0.00,,---,0.12,VWS V13.01,2013-01-05 17:55:00,
2013-01-05 13:05:00,72.7,66.9,29.84,NE,45,20.1,20.1,82,0.00,,---,0.12,VWS V13.01,2013-01-05 18:05:00,
2013-01-05 13:10:00,72.7,66.9,29.84,ENE,68,4.5,20.1,82,0.00,,---,0.12,VWS V13.01,2013-01-05 18:10:00,
2013-01-05 13:20:00,72.3,66.5,29.84,ENE,68,3.6,7.6,82,0.00,,---,0.12,VWS V13.01,2013-01-05 18:20:00,
2013-01-05 13:25:00,72.3,66.5,29.84,North,0,8.3,8.3,82,0.00,,---,0.12,VWS V13.01,2013-01-05 18:25:00,
2013-01-05 13:35:00,72.5,66.7,29.82,NE,45,2.2,2.2,82,0.00,,---,0.12,VWS V13.01,2013-01-05 18:35:00,
2013-01-05 13:40:00,73.0,67.2,29.83,NNW,338,5.1,6.0,82,0.00,,---,0.12,VWS V13.01,2013-01-05 18:40:00,
2013-01-05 13:50:00,73.2,67.1,29.82,North,0,6.7,6.7,81,0.00,,---,0.12,VWS V13.01,2013-01-05 18:50:00,
2013-01-05 13:55:00,73.2,67.1,29.82,North,0,6.7,6.7,81,0.00,,---,0.12,VWS V13.01,2013-01-05 18:55:00,
2013-01-05 14:05:00,73.4,67.2,29.81,NNE,22,0.9,19.5,81,0.00,,---,0.12,VWS V13.01,2013-01-05 19:05:00,
2013-01-05 14:15:00,73.6,67.0,29.81,NNE,22,2.0,2.0,80,0.00,,---,0.12,VWS V13.01,2013-01-05 19:15:00,
2013-01-05 14:25:00,73.6,67.0,29.81,NNW,338,2.7,2.7,80,0.00,,---,0.12,VWS V13.01,2013-01-05 19:25:00,
2013-01-05 14:30:00,73.6,66.7,29.81,NNE,22,15.0,15.0,79,0.00,,---,0.12,VWS V13.01,2013-01-05 19:30:00,
2013-01-05 14:40:00,73.8,66.5,29.81,NNE,22,3.1,6.0,78,0.00,,---,0.12,VWS V13.01,2013-01-05 19:40:00,
2013-01-05 14:45:00,73.6,66.7,29.81,North,0,6.3,6.3,79,0.00,,---,0.12,VWS V13.01,2013-01-05 19:45:00,
2013-01-05 14:55:00,73.6,66.3,29.81,North,0,2.0,18.3,78,0.00,,---,0.12,VWS V13.01,2013-01-05 19:55:00,
2013-01-05 15:05:00,73.9,66.7,29.81,North,0,16.3,16.3,78,0.00,,---,0.12,VWS V13.01,2013-01-05 20:05:00,
2013-01-05 15:15:00,74.1,66.8,29.82,North,0,0.0,2.9,78,0.00,,---,0.12,VWS V13.01,2013-01-05 20:15:00,
2013-01-05 15:20:00,74.1,66.8,29.82,NNW,338,4.7,4.7,78,0.00,,---,0.12,VWS V13.01,2013-01-05 20:20:00,
2013-01-05 15:30:00,74.1,66.5,29.82,North,0,4.9,5.1,77,0.00,,---,0.12,VWS V13.01,2013-01-05 20:30:00,
2013-01-05 15:35:00,74.3,66.6,29.81,NNW,338,2.0,4.9,77,0.00,,---,0.12,VWS V13.01,2013-01-05 20:35:00,
2013-01-05 15:45:00,75.0,66.9,29.82,WSW,248,1.6,1.6,76,0.00,,---,0.12,VWS V13.01,2013-01-05 20:45:00,
2013-01-05 15:50:00,75.4,67.3,29.82,WSW,248,0.0,1.6,76,0.00,,---,0.12,VWS V13.01,2013-01-05 20:50:00,
2013-01-05 16:00:00,75.6,66.7,29.81,WSW,248,6.5,6.5,74,0.00,,---,0.12,VWS V13.01,2013-01-05 21:00:00,
2013-01-05 16:05:00,75.7,66.5,29.81,WSW,248,0.2,6.5,73,0.00,,---,0.12,VWS V13.01,2013-01-05 21:05:00,
2013-01-05 16:15:00,75.9,66.2,29.82,WSW,248,0.0,0.9,72,0.00,,---,0.12,VWS V13.01,2013-01-05 21:15:00,
2013-01-05 16:25:00,75.9,66.2,29.81,WSW,248,3.4,3.4,72,0.00,,---,0.12,VWS V13.01,2013-01-05 21:25:00,
2013-01-05 16:30:00,76.1,66.4,29.81,WSW,248,0.0,3.4,72,0.00,,---,0.12,VWS V13.01,2013-01-05 21:30:00,
2013-01-05 16:35:00,76.3,66.6,29.81,WSW,248,1.1,1.1,72,0.00,,---,0.12,VWS V13.01,2013-01-05 21:35:00,
2013-01-05 16:45:00,76.1,66.4,29.81,WSW,248,0.0,2.7,72,0.00,,---,0.12,VWS V13.01,2013-01-05 21:45:00,
2013-01-05 16:50:00,76.1,66.4,29.81,NNW,338,0.0,0.0,72,0.00,,---,0.12,VWS V13.01,2013-01-05 21:50:00,
2013-01-05 17:00:00,75.9,66.2,29.81,NW,315,0.0,0.0,72,0.00,,---,0.12,VWS V13.01,2013-01-05 22:00:00,
2013-01-05 17:10:00,75.7,66.1,29.81,ENE,68,0.0,2.0,72,0.00,,---,0.12,VWS V13.01,2013-01-05 22:10:00,
2013-01-05 17:15:00,75.7,66.1,29.82,NNE,22,0.0,0.0,72,0.00,,---,0.12,VWS V13.01,2013-01-05 22:15:00,
2013-01-05 17:25:00,75.0,65.4,29.82,ENE,68,0.0,0.0,72,0.00,,---,0.12,VWS V13.01,2013-01-05 22:25:00,
2013-01-05 17:35:00,74.8,65.6,29.82,ENE,68,0.0,3.8,73,0.00,,---,0.12,VWS V13.01,2013-01-05 22:35:00,
2013-01-05 17:40:00,74.3,65.5,29.82,ENE,68,2.0,2.0,74,0.00,,---,0.12,VWS V13.01,2013-01-05 22:40:00,
2013-01-05 17:50:00,73.9,65.5,29.82,ENE,68,0.0,4.0,75,0.00,,---,0.12,VWS V13.01,2013-01-05 22:50:00,
2013-01-05 18:00:00,73.9,65.5,29.82,NE,45,19.0,19.0,75,0.00,,---,0.12,VWS V13.01,2013-01-05 23:00:00,
2013-01-05 18:10:00,73.4,65.0,29.83,NNE,22,24.8,24.8,75,0.00,,---,0.12,VWS V13.01,2013-01-05 23:10:00,
2013-01-05 18:15:00,73.2,65.2,29.83,NNE,22,19.7,24.8,76,0.00,,---,0.12,VWS V13.01,2013-01-05 23:15:00,
2013-01-05 18:25:00,73.2,65.2,29.83,NNE,22,17.9,18.1,76,0.00,,---,0.12,VWS V13.01,2013-01-05 23:25:00,
2013-01-05 18:35:00,72.9,64.9,29.83,NNE,22,16.3,16.3,76,0.00,,---,0.12,VWS V13.01,2013-01-05 23:35:00,
2013-01-05 18:40:00,72.5,64.5,29.84,NNE,22,8.1,22.8,76,0.00,,---,0.12,VWS V13.01,2013-01-05 23:40:00,
2013-01-05 18:45:00,72.3,64.7,29.84,NNE,22,19.9,23.0,77,0.00,,---,0.12,VWS V13.01,2013-01-05 23:45:00,
2013-01-05 18:55:00,71.8,64.2,29.84,NNE,22,15.7,19.0,77,0.00,,---,0.12,VWS V13.01,2013-01-05 23:55:00,
2013-01-05 19:00:00,71.8,64.2,29.84,NNE,22,17.5,17.5,77,0.00,,---,0.12,VWS V13.01,2013-01-06 00:00:00,
2013-01-05 19:10:00,71.4,64.2,29.84,NNE,22,0.0,23.0,78,0.00,,---,0.12,VWS V13.01,2013-01-06 00:10:00,
2013-01-05 19:15:00,71.2,64.0,29.84,NNE,22,17.7,17.7,78,0.00,,---,0.12,VWS V13.01,2013-01-06 00:15:00,
2013-01-05 19:25:00,71.2,64.0,29.84,NNE,22,0.0,21.7,78,0.00,,---,0.12,VWS V13.01,2013-01-06 00:25:00,
2013-01-05 19:30:00,70.9,63.7,29.85,NNE,22,13.6,13.6,78,0.00,,---,0.12,VWS V13.01,2013-01-06 00:30:00,
2013-01-05 19:40:00,70.9,63.7,29.85,NNE,22,16.3,16.3,78,0.00,,---,0.12,VWS V13.01,2013-01-06 00:40:00,
2013-01-05 19:45:00,70.7,63.9,29.85,NNE,22,0.0,16.3,79,0.00,,---,0.12,VWS V13.01,2013-01-06 00:45:00,
2013-01-05 19:55:00,70.5,63.7,29.85,NNE,22,8.7,8.7,79,0.00,,---,0.12,VWS V13.01,2013-01-06 00:55:00,
2013-01-05 20:05:00,70.5,63.7,29.85,NNW,338,0.4,18.1,79,0.00,,---,0.12,VWS V13.01,2013-01-06 01:05:00,
2013-01-05 20:15:00,70.7,64.2,29.86,NNE,22,10.7,11.4,80,0.00,,---,0.12,VWS V13.01,2013-01-06 01:15:00,
2013-01-05 20:20:00,70.7,64.2,29.86,North,0,11.2,21.0,80,0.00,,---,0.12,VWS V13.01,2013-01-06 01:20:00,
2013-01-05 20:25:00,70.7,64.2,29.86,North,0,11.2,11.2,80,0.00,,---,0.12,VWS V13.01,2013-01-06 01:25:00,
2013-01-05 20:35:00,70.5,64.1,29.86,North,0,0.0,18.6,80,0.00,,---,0.12,VWS V13.01,2013-01-06 01:35:00,
2013-01-05 20:40:00,70.5,64.1,29.86,North,0,18.1,18.1,80,0.00,,---,0.12,VWS V13.01,2013-01-06 01:40:00,
2013-01-05 20:50:00,70.3,63.9,29.86,North,0,9.4,21.5,80,0.00,,---,0.12,VWS V13.01,2013-01-06 01:50:00,
2013-01-05 21:00:00,70.2,63.7,29.86,North,0,12.8,12.8,80,0.00,,---,0.12,VWS V13.01,2013-01-06 02:00:00,
2013-01-05 21:10:00,70.0,63.5,29.87,North,0,0.0,14.5,80,0.00,,---,0.12,VWS V13.01,2013-01-06 02:10:00,
2013-01-05 21:20:00,69.6,63.2,29.87,North,0,14.3,24.4,80,0.00,,---,0.12,VWS V13.01,2013-01-06 02:20:00,
2013-01-05 21:30:00,69.6,63.2,29.87,North,0,0.0,0.0,80,0.00,,---,0.12,VWS V13.01,2013-01-06 02:30:00,
2013-01-05 21:40:00,69.6,63.2,29.87,North,0,0.0,0.0,80,0.00,,---,0.12,VWS V13.01,2013-01-06 02:40:00,
2013-01-05 21:45:00,69.4,63.0,29.87,North,0,0.0,0.0,80,0.00,,---,0.12,VWS V13.01,2013-01-06 02:45:00,
2013-01-05 21:55:00,69.3,62.8,29.87,North,0,0.0,10.7,80,0.00,,---,0.12,VWS V13.01,2013-01-06 02:55:00,
2013-01-05 22:00:00,69.1,62.7,29.87,North,0,0.0,0.0,80,0.00,,---,0.12,VWS V13.01,2013-01-06 03:00:00,
2013-01-05 22:10:00,68.9,62.5,29.86,North,0,13.6,13.6,80,0.00,,---,0.12,VWS V13.01,2013-01-06 03:10:00,
2013-01-05 22:20:00,68.7,62.3,29.86,North,0,7.8,12.1,80,0.00,,---,0.12,VWS V13.01,2013-01-06 03:20:00,
2013-01-05 22:30:00,68.7,62.3,29.86,North,0,9.4,27.3,80,0.00,,---,0.12,VWS V13.01,2013-01-06 03:30:00,
2013-01-05 22:40:00,68.7,62.7,29.86,North,0,0.0,17.5,81,0.00,,---,0.12,VWS V13.01,2013-01-06 03:40:00,
2013-01-05 22:50:00,68.7,62.7,29.86,North,0,0.0,15.4,81,0.00,,---,0.12,VWS V13.01,2013-01-06 03:50:00,
2013-01-05 22:55:00,68.7,62.7,29.86,North,0,0.0,0.0,81,0.00,,---,0.12,VWS V13.01,2013-01-06 03:55:00,
2013-01-05 23:05:00,68.5,62.5,29.86,North,0,0.0,0.0,81,0.00,,---,0.12,VWS V13.01,2013-01-06 04:05:00,
2013-01-05 23:15:00,68.5,62.5,29.86,North,0,14.3,14.3,81,0.00,,---,0.12,VWS V13.01,2013-01-06 04:15:00,
2013-01-05 23:20:00,68.4,62.3,29.85,North,0,0.0,14.3,81,0.00,,---,0.12,VWS V13.01,2013-01-06 04:20:00,
2013-01-05 23:25:00,68.4,62.3,29.85,North,0,0.0,0.0,81,0.00,,---,0.12,VWS V13.01,2013-01-06 04:25:00,
2013-01-05 23:35:00,68.2,62.1,29.85,North,0,0.0,15.0,81,0.00,,---,0.12,VWS V13.01,2013-01-06 04:35:00,
2013-01-05 23:40:00,67.8,61.8,29.85,North,0,9.0,9.0,81,0.00,,---,0.12,VWS V13.01,2013-01-06 04:40:00,
2013-01-05 23:50:00,67.8,61.8,29.84,North,0,9.0,9.0,81,0.00,,---,0.12,VWS V13.01,2013-01-06 04:50:00,